Location: Bennemühlen
(52.5740°N, 9.7135°E)
Time: 17:11:04
(UTC+00:00)

Tiros 1 despin weight - Pass Details

Date: 25 February 2026
Orbit: 556 x 593 km, 48.2° (Epoch: 11 March)

Event Time Altitude Azimuth Distance (km) Brightness Sun altitude
Rises 15:44:37 0° 272° (W) 2,744 ? 8.8°
Reaches altitude 10° 15:47:01 10° 263° (W) 1,843 ? 8.5°
Maximum altitude 15:50:49 34° 198° (SSW) 935 ? 8.0°
Drops below altitude 10° 15:54:35 10° 134° (SE) 1,834 ? 7.4°
Sets 15:56:58 0° 125° (SE) 2,727 ? 7.1°
